www.pogodaiklimat.ru

Погода и климат >> Архив погоды >> Россия >> Оренбургская область >> Акбулак


ПОГОДА в Акбулаке

  • Прогноз погоды в Акбулаке
  • Монитор погоды в Акбулаке
  • Климат города

АРХИВ ПОГОДЫ в Акбулаке

Время (UTC), дата Ветер
(напр.,м/с)
 
Видим.   Явления Облачность Т
(С)
Тd
(С)
f
(%)
Тe
(С)
Тes
(С)
Комфортность P
(гПа)
Po
(гПа)
Тmin
(С)
Tmax
(С)
R
(мм)
R24
(мм)
S
(см)
18 10.11 штиль 0 20 км ясно -5.1 -5.9 94 -6 -6 1031.9 1013.0
21 10.11 штиль 0 20 км ясно -6.4 -7.5 92 -7 -7 1031.8 1012.8
00 11.11 В 1 20 км 3/0
[Ci fib]
-6.0 -6.8 94 -8 -8 1031.4 1012.5
03 11.11 В 1 20 км 8/0
[Ac trans Ci fib]
-5.8 -7.0 91 -8 -8 1031.0 1012.0 -7.1
06 11.11 ЮВ 2 20 км 9/3 600 м
[Sc Ac As Ci fib]
-1.6 -2.9 91 -6 -5 1030.4 1011.8
09 11.11 ЮВ 2 20 км 9/4 600 м
[Sc Ac As]
+0.9 -1.8 82 -3 -2 1029.2 1010.8
12 11.11 В 2 20 км 9/3 600 м
[Sc Ac As Ci fib]
+1.7 -1.6 79 -2 -1 1028.2 1009.8
15 11.11 В 2 20 км ясно -1.5 -2.7 92 -5 -5 1027.9 1009.3 +2.6
18 11.11 СВ 1 20 км 10/0
[Ac As]
-1.3 -2.3 93 -4 -4 1027.1 1008.6
21 11.11 ЮВ 2 20 км 10/0
[Ac As]
+0.6 -0.9 90 -3 -3 1026.0 1007.6
00 12.11 ЮВ 2 20 км 10/0
[Ac As]
+0.7 -0.9 89 -3 -3 1024.7 1006.4
03 12.11 В 1 20 км 10/0
[Ac As]
+1.0 -0.6 89 -1 -1 1024.0 1005.6 -1.9
06 12.11 ЮВ 2 20 км 8/0
[Ac As]
+2.1 -0.5 83 -1 -1 1023.8 1005.5
09 12.11 ЮВ 2 20 км 8/3 600 м
[Sc Ac As]
+3.4 -0.3 77 +1 +1 1023.2 1005.0
12 12.11 ЮВ 2 20 км 9/4 600 м
[Sc Ac As]
+2.1 +0.6 90 -1 -1 1022.5 1004.3
15 12.11 ЮВ 1 20 км 6/0
[Ac trans]
-0.9 -1.5 96 -3 -3 1022.9 1004.4 +3.8
18 12.11 ЮВ 1 1000 м дымка 10/10 400 м
[St]
-1.9 -2.2 98 -4 -4 1023.1 1004.5
21 12.11 В 1 4000 м дымка 10/10 420 м
[St]
-1.9 -2.2 98 -4 -4 1022.7 1004.2
00 13.11 В 1 20 км 10/10 480 м
[St]
-2.4 -2.7 98 -5 -5 1022.8 1004.2
03 13.11 Ю 1 20 км 10/10 500 м
[St]
-1.6 -1.8 99 -4 -4 1023.3 1004.8 -3.1
06 13.11 ЮВ 3 20 км 10/0
[Ac und]
-0.2 -0.4 99 -5 -5 1024.2 1005.8
09 13.11 Ю 2 20 км 10/0
[Ac As]
+3.0 +1.8 92 -0 +1 1023.8 1005.6
12 13.11 ЮВ 3 20 км 8/0
[Ac trans]
+3.4 +2.0 91 -1 -1 1023.2 1005.0
15 13.11 ЮВ 3 20 км 10/0
[Ac As]
+1.4 +0.8 96 -3 -3 1023.3 1005.0 +4.1
18 13.11 ЮВ 2 20 км 10/10 660 м
[Sc]
+2.7 +1.8 94 -1 -1 1022.6 1004.4
21 13.11 Ю 3 20 км 10/10 630 м
[Sc]
+4.6 +3.6 93 +1 +1 1021.6 1003.5
00 14.11 ЮЗ 3 20 км 8/8 660 м
[Sc]
+4.9 +4.1 95 +1 +1 1021.3 1003.3
03 14.11 З 3 20 км {дождь} 8/8 600 м
[Sc]
+4.9 +3.9 93 +1 +1 1021.9 1003.8 +1.4 0.5
06 14.11 З 2 20 км {дождь} 8/0
[Ac trans]
+4.3 +2.9 91 +1 +2 1023.4 1005.3
09 14.11 СЗ 3 20 км 10/0
[Ac As]
+4.8 +3.0 88 +1 +2 1024.1 1006.1
12 14.11 З 2 20 км 9/4 600 м
[Sc Ac As]
+4.7 +3.1 89 +2 +2 1025.0 1006.9
15 14.11 Ю 1 20 км 10/10 720 м
[Sc]
+4.2 +2.8 91 +3 +3 1025.8 1007.7 +5.8
18 14.11 штиль 0 20 км 10/8 660 м
[Sc Ac As]
+4.0 +1.2 82 +3 +3 1026.2 1008.0
21 14.11 Ю 2 20 км 10/10 600 м
[St]
+3.4 +0.9 84 0 0 1026.1 1007.9
00 15.11 Ю 1 20 км 10/10 570 м
[St]
+2.3 +0.5 88 +1 +1 1026.4 1008.1
03 15.11 ЮВ 2 20 км 10/10 300 м
[St]
+2.8 +1.3 90 -0 -0 1025.9 1007.7 +1.8
06 15.11 Ю 2 20 км 10/10 600 м
[Sc]
+4.8 +3.5 91 +2 +2 1025.8 1007.7
09 15.11 ЮЗ 3 10 км слабый дождь 10/10 570 м
[Sc]
+5.2 +4.0 92 +2 +2 1025.1 1007.0
12 15.11 ЮЗ 3 20 км {дождь} 10/10 570 м
[Sc]
+4.8 +4.0 95 +1 +1 1025.3 1007.2
15 15.11 ЮЗ 4 4000 м слабая морось 10/10 480 м
[St]
+4.1 +3.6 97 -1 -1 1025.1 1007.0 +5.5 1
18 15.11 Ю 4 20 км {морось} 10/10 500 м
[St]
+4.1 +3.0 93 -1 -1 1024.5 1006.3
21 15.11 Ю 4 20 км 10/10 570 м
[Sc]
+4.4 +3.0 91 0 0 1023.1 1005.0
00 16.11 Ю 4
{10}
20 км 10/10 600 м
[Sc]
+4.7 +3.6 93 0 0 1022.0 1004.0
03 16.11 Ю 5 20 км 10/10 600 м
[Sc]
+4.5 +3.3 92 -1 -1 1020.2 1002.1 +3.8 0.0
06 16.11 ЮЗ 5-11
{11}
10 км слабый дождь 10/10 500 м
[Frnb Ns]
+4.4 +3.2 92 -1 -1 1019.4 1001.4
09 16.11 ЮЗ 4
{11}
10 км слабый дождь 10/10 540 м
[Frnb Ns]
+4.7 +3.9 95 0 0 1019.3 1001.3
12 16.11 СЗ 3 20 км {дождь} 10/10 540 м
[Frnb]
+3.6 +2.3 91 -0 -0 1020.8 1002.7
15 16.11 СЗ 3 20 км 10/10 500 м
[Sc]
+1.1 +0.2 94 -4 -4 1022.8 1004.5 +5.0 4
18 16.11 СЗ 2 20 км 10/10 630 м
[Sc]
+0.5 -2.3 81 -3 -3 1023.0 1004.6
21 16.11 З 1 20 км ясно -2.2 -3.4 91 -5 -5 1023.3 1004.8
00 17.11 ЮЗ 1 20 км ясно -3.8 -4.9 92 -6 -6 1023.1 1004.5
03 17.11 ЮЗ 3 20 км 10/3 600 м
[Sc Ac As]
-3.0 -4.1 92 -8 -8 1022.2 1003.6 -4.1
06 17.11 ЮЗ 2 20 км 9/4 600 м
[Sc Ac As]
-0.6 -2.2 89 -4 -4 1021.5 1003.1
09 17.11 ЮЗ 3 20 км 10/0
[Ac As]
+0.3 -0.9 92 -4 -4 1020.6 1002.3
12 17.11 З 3 20 км 9/0
[Ac As]
+0.6 -0.4 93 -4 -4 1020.8 1002.5
15 17.11 З 2 20 км 10/10 660 м
[Sc]
+0.6 -0.5 92 -3 -3 1021.9 1003.6 +1.1

 

Местоположение метеостанции Акбулак (Оренбургская область, Россия): широта 51.02 долгота 55.63 высота над уровнем моря 144 м.

В архиве по умолчанию представлена погода в Акбулаке за последнюю неделю. Архивные данные за месяц целиком и за предыдущие месяцы, начиная с января 2011 года, Вы можете получить, выбрав интересующий диапазон дат из раскрывающегося списка и нажав кнопку "Ввод!".

Внимание! Время в таблицах - всемирное. Для получения местного времени необходимо прибавить поправку, которая в Акбулаке равна 5 ч.

Смотрите также архив погоды в соседних городах и на ближайших метеорологических станциях:

Погода в Соль-Илецк (Оренбургская область, Россия) (45 км)
Погода в Мартуке (Актюбинская область, Казахстан) (70 км)
Погода в Беляевке (Оренбургская область, Россия) (71 км)
Погода в Оренбурге (Оренбургская область, Россия) (82 км)
Погода в Новоалексеевке (Костанайская область, Казахстан) (99 км)
Погода в Чингирлау (Западно-Казахстанская область, Казахстан) (107 км)
Погода в Родниковке (Актюбинская область, Казахстан) (116 км)
Погода в Каралаатсае (Актюбинская область, Казахстан) (127 км)
Погода в Кувандыке (Оренбургская область, Россия) (131 км)
Погода в Актобе (Актюбинская область, Казахстан) (135 км)

Пояснения к столбцам:

Ветер - указаны скорость ветра в м/с - средняя за 10 мин, порывы в срок и между сроками (в фигурных скобках) и направление, откуда дует ветер: С - северный, СВ - северо-восточный, В - восточный, ЮВ - юго-восточный, Ю - южный, ЮЗ - юго-западный, З - западный, СЗ - северо-западный.
Видимость - горизонтальная дальность видимости в метрах или километрах. При видимости от 1 до 10 км при отсутствии осадков обычно наблюдается дымка, при ухудшении видимости до 1 км и менее - туман. В сухую погоду видимость может ухудшаться дымом, пылью или мглою.
Явления - указаны атмосферные явления, наблюдавшиеся в срок или в последний час перед сроком; фигурными скобками обозначены явления, наблюдавшиеся между сроками (за 1-3 часа до срока); квадратными скобками обозначены град или гололедные отложения с указанием их диаметра в мм.
Облачность - указаны через наклонную черту общая и нижняя облачность в баллах и высота нижней границы облаков в метрах; квадратными скобками обозначены формы облаков: Ci - перистые, Cs - перисто-слоистые, Cc - перисто-кучевые, Ac - высококучевые, As - высокослоистые, Sc - слоисто-кучевые, Ns - слоисто-дождевые, Cu - кучевые, Cb - кучево-дождевые. Подробнее классификацию облаков см. в Атласе облаков (PDF).
T - Температура воздуха - температура, измеренная на высоте 2 м над землей.
Td - Температура точки росы - температура, при понижении до которой содержащийся в воздухе водяной пар достигнет насыщения.
f - Относительная влажность воздуха - влажноcть воздуха, измеренная на высоте 2 м над землей.
Te - Эффективная температура - температура, которую ощущает одетый по сезону человек в тени. Характеристика душности погоды. При расчете учитывается влияние влажности воздуха и скорости ветра на теплоощущения человека.
Tes - Эффективная температура на солнце - температура, которую ощущает человек, с поправкой на солнечный нагрев. Характеристика знойности погоды. Зависит от высоты солнца над горизонтом, облачности и скорости ветра. Ночью, в пасмурную погоду, а также при ветре 12 м/с и более поправка равна нулю.
P - Атмосферное давление - приведенное к уровню моря атмосферное давление.
Po - Атмосферное давление - измеренное на уровне метеостанции атмосферное давление.
Tmin - Минимальная температура - минимум температуры воздуха на высоте 2 м над землей.
Tmax - Максимальная температура - максимум температуры воздуха на высоте 2 м над землей.
R - Количество осадков - Количество выпавших осадков за период времени, мм. При наведении курсора мыши на число - период времени, за который выпало указанное количество осадков.
R24 - Количество осадков - Количество выпавших осадков за 24 часа, мм.
S - Снежный покров - Высота снежного покрова, см. При наведении курсора мыши на число - состояние снежного покрова и степень покрытия местности в баллах.